Regional Weather Roundup
Issued by NWS Kansas City/Pleasant Hill, MO

Home | Current Version | Previous Version | Text Only | Print | Product List | Glossary Off
Versions: 1 2 3 4 5 6 7 8 9 10 11 12 13 14 15 16 17 18 19 20 21 22 23 24 25 26 27 28 29 30 31 32 33 34 35 36 37 38 39 40 41 42 43 44 45 46 47 48

652
ASUS43 KEAX 241010
RWREAX

WEATHER ROUNDUP FOR EASTERN KANSAS AND NORTHWEST MISSOURI
NATIONAL WEATHER SERVICE KANSAS CITY/PLEASANT HILL MO
500 AM CDT TUE MAY 24 2016

KSZ040-057-103>105-MOZ028-029-037-043-241100-
...KANSAS CITY METROPOLITAN AREA...

CITY           SKY/WX    TMP DP  RH WIND       PRES   REMARKS
K.C. INTL      CLOUDY    63  60  90 S3        29.91R
K.C. DOWNTOWN  CLOUDY    65  61  87 E5        29.89R
LEES SUMMIT    CLOUDY    64  61  90 SE5       29.91R
OLATHE - IXD   CLOUDY    62  61  96 S7        29.91R
OLATHE - OJC   CLOUDY    62  61  96 S6        29.90R
LAWRENCE       CLOUDY    61  60  97 E3        29.89R

$$

MOZ001>008-011>017-020>025-030>033-038>040-044>046-053-054-241100-
...NORTHERN AND CENTRAL MISSOURI...

CITY           SKY/WX    TMP DP  RH WIND       PRES   REMARKS
ST. JOSEPH     PTCLDY    64  60  87 S12       29.87F
MOSBY          CLOUDY    63  61  94 SE5       29.90S
WARRENSBURG    CLOUDY    61  59  94 CALM      29.91R
WHITEMAN AFB   MOCLDY    61  61 100 S6        29.91R
CLINTON        CLOUDY    61  61 100 E3        29.91S
SEDALIA        CLEAR     61  59  93 SE5       29.94R
WARSAW         NOT AVBL
CHILLICOTHE      N/A     64  61  90 CALM      29.92S
KIRKSVILLE     CLOUDY    63  59  87 W6        29.93S

$$

MOZ041-047>049-056>058-063>065-088>090-097-241100-
...EASTERN AND SOUTHERN MISSOURI...

CITY           SKY/WX    TMP DP  RH WIND       PRES   REMARKS
ST. LOUIS INTL MOCLDY    69  54  58 S9        29.97S
SPIRIT OF STL  CLOUDY    67  56  67 S6        29.95S
COLUMBIA       CLEAR     62  59  90 S6        29.94S
JEFFERSON CITY CLEAR     63  59  87 SE5       29.94S
ROLLA          CLOUDY    62  57  83 S7        29.94F
OSAGE BEACH      N/A    N/A N/A N/A SE3       29.95
SPRINGFIELD    CLOUDY    64  61  90 S9        29.93R
JOPLIN         CLOUDY    65  62  90 SE7       29.90R
WEST PLAINS    PTCLDY    63  56  78 CALM      29.99R

$$

IAZ060-094-KSZ022-034>040-054-083-096-NEZ052-066-093-241100-
...KANSAS...SOUTHEAST NEBRASKA AND IOWA...

CITY           SKY/WX    TMP DP  RH WIND       PRES   REMARKS
TOPEKA         LGT RAIN  63  60  90 W15G21    29.92R
MANHATTAN      LGT RAIN  61  58  90 SE6       29.88F
EMPORIA        CLOUDY    65  64  97 E3        29.90R
CHANUTE        LGT RAIN  67  63  87 SE7       29.88R
WICHITA        DRIZZLE   70  67  90 SE9       29.80F
OMAHA          CLOUDY    60  57  89 SE3       29.83S
LINCOLN        CLOUDY    60  58  92 NE5       29.83R
FALLS CITY     CLOUDY    67  61  81 S14G24    29.81R
LAMONI         TSTM      63  61  93 S10       29.89F
DES MOINES     CLOUDY    65  62  90 S3        29.88F

$$





USA.gov is the U.S. government's official web portal to all federal, state and local government web resources and services.